Location: Unspecified
(52.4292°N, 19.3359°E)
Time: 23:11:01
(UTC+02:00)

A-11 Canister half - Pass Details

Date: 24 May 2024
Orbit: 1515 x 1685 km, 47.2° (Epoch: 19 June)

Event Time Altitude Azimuth Distance (km) Brightness Sun altitude
Rises 06:30:06 0° 274° (W) 4,712 11.0 15.0°
Reaches altitude 10° 06:33:13 10° 271° (W) 3,712 10.5 15.5°
Maximum altitude 06:42:16 58° 195° (SSW) 1,727 9.4 16.8°
Drops below altitude 10° 06:51:13 10° 120° (ESE) 3,676 11.9 18.1°
Sets 06:54:18 0° 116° (ESE) 4,664 12.4 18.6°
